#timestamp,LO_Frequency,Hit,StdDev 
1503475215.6,286046995.9,Y,0.0
1503475235.5,286046996.6,P,1.1
1503475255.3,286046997.1,N,0.9
1503475275.2,286046997.7,N,0.8
1503475295.9,286046995.4,Y,0.0
1503475315.7,286046996.7,P,0.4
1503475335.6,286046997.0,P,0.3
1503475355.4,286046996.7,P,0.3
1503475375.3,286046996.9,Y,0.0
1503475395.1,286046999.9,P,1.5
1503475396.0,286046999.9,N,1.4
1503475415.8,286046999.9,N,1.3
1503475435.7,286047000.5,N,1.2
1503475455.5,286047000.5,N,1.2
1503475475.3,286047000.3,N,1.1
1503475495.2,286047000.3,N,1.1
1503475515.0,286047000.7,N,1.1
1503475515.9,286047000.7,N,1.0
1503475535.8,286047000.0,N,1.0
1503475555.6,286047002.0,N,1.1
1503475575.4,286047000.0,N,1.1
1503475595.3,286047002.7,N,1.2
1503475615.1,286047000.9,N,1.2
1503475635.8,286047000.0,N,1.1
1503475655.7,286047000.6,N,1.1
1503475675.5,286047000.7,N,1.1
1503475695.4,286046998.1,N,1.2
1503475715.2,286047000.7,N,1.1
1503475735.0,286047001.1,N,1.1
1503475735.9,286047001.1,N,1.1
1503475755.8,286047000.2,N,1.1
1503475775.6,286047000.5,N,1.1
1503475795.5,286047001.1,N,1.1
1503475815.3,286046998.5,N,1.1
1503475835.1,286046998.5,N,1.1
1503475855.9,286047000.7,N,1.1
1503475875.7,286047000.9,N,1.1
1503475895.5,286047000.7,N,1.1
1503475915.4,286046998.1,N,1.0
1503475935.2,286047000.4,N,1.0
1503475955.1,286047001.0,N,1.0
1503475956.0,286047001.0,N,1.0
1503475975.8,286047000.7,N,1.0
1503475995.6,286046998.2,N,1.1
1503476015.5,286046998.4,N,1.1
1503476035.3,286046998.4,N,1.2
1503476055.2,286047001.2,N,1.2
1503476075.0,286046998.5,N,1.2
1503476075.9,286046998.5,N,1.3
1503476095.7,286046998.3,N,1.2
1503476115.6,286047001.1,N,1.3
1503476135.4,286046998.7,N,1.2
1503476155.3,286046998.9,N,1.2
1503476175.1,286046999.4,N,1.2
1503476195.8,286046996.9,N,1.3
1503476215.7,286046996.7,N,1.4
1503476235.5,286046999.6,N,1.3
1503476255.4,286046999.2,N,1.3
1503476275.2,286046999.4,N,1.3
1503476295.0,286046999.6,N,1.3
1503476295.9,286046999.6,N,1.3
1503476315.8,286046996.6,N,1.3
1503476335.6,286046997.1,N,1.4
1503476355.5,286046997.1,N,1.4
1503476375.3,286046996.5,N,1.5
1503476395.1,286046997.1,N,1.5
1503476415.9,286046997.8,N,1.4
1503476435.7,286046997.6,N,1.4
1503476455.6,286046997.9,N,1.4
1503476475.4,286046995.5,Y,0.0
1503476495.2,286046996.7,P,1.0
1503476515.1,286046999.5,N,1.2
1503476516.0,286046999.5,N,1.1
1503476535.8,286046997.2,N,1.2
1503476555.7,286046997.4,N,1.1
1503476575.5,286046996.6,Y,0.0
1503476595.3,286047000.8,P,1.3
1503476615.2,286046998.7,N,1.1
1503476635.0,286046998.6,N,1.0
1503476635.9,286046998.6,N,0.9
1503476655.8,286047000.4,N,1.0
1503476675.6,286046999.9,N,1.0
1503476695.4,286047000.6,N,1.0
1503476715.3,286046999.9,N,0.9
1503476735.1,286046999.7,N,0.9
1503476755.9,286046999.8,N,0.9
1503476775.7,286047002.6,N,1.2
1503476795.5,286046999.8,N,1.1
1503476815.4,286047002.4,N,1.3
1503476835.2,286047000.2,N,1.2
1503476855.0,286047002.7,N,1.4
1503476856.0,286047002.7,N,1.4
1503476875.8,286047000.0,N,1.4
1503476895.6,286046999.7,N,1.4
1503476915.5,286047000.2,N,1.3
1503476935.3,286047000.2,N,1.3
1503476955.1,286047000.1,N,1.3
1503476975.9,286047000.1,N,1.3
1503476995.7,286046999.7,N,1.2
1503477015.6,286047002.6,N,1.3
1503477035.4,286046999.7,N,1.3
1503477055.2,286047000.1,N,1.3
1503477075.1,286047002.6,N,1.3
1503477076.0,286047002.6,N,1.3
1503477095.8,286047002.3,N,1.4
1503477115.7,286047001.4,N,1.3
1503477135.5,286047001.8,N,1.3
1503477155.3,286047003.9,N,1.4
1503477175.2,286047004.0,N,1.4
1503477195.0,286047003.6,N,1.4
1503477195.9,286047003.6,N,1.5
1503477215.8,286047004.1,N,1.5
1503477235.6,286047001.8,N,1.5
1503477255.4,286047004.4,N,1.6
1503477275.3,286047001.4,N,1.6
1503477295.1,286047001.3,N,1.5
1503477315.9,286047004.2,N,1.6
1503477335.7,286047003.5,N,1.6
1503477355.5,286047003.5,N,1.6
1503477375.4,286047004.3,N,1.6
1503477395.2,286047003.7,N,1.6
1503477415.0,286047003.2,N,1.6
1503477415.9,286047003.2,N,1.6
1503477435.8,286047003.7,N,1.6
1503477455.6,286047004.2,N,1.5
1503477475.5,286047003.2,N,1.5
1503477495.3,286047005.3,Y,0.0
1503477515.1,286047001.3,P,0.6
1503477535.9,286047001.6,N,0.6
1503477555.7,286047001.6,N,0.5
1503477575.6,286047004.2,Y,0.0
1503477595.4,286047002.8,P,0.5
1503477615.2,286046999.7,N,1.3
1503477635.1,286047000.0,N,1.3
1503477636.0,286047000.0,N,1.2
1503477655.8,286046999.7,N,1.2
1503477675.7,286047002.7,N,1.3
1503477695.5,286047002.6,N,1.3
1503477715.3,286047002.0,N,1.3
1503477735.2,286046999.7,N,1.3
1503477755.0,286047001.5,N,1.3
1503477755.9,286047001.5,N,1.2
1503477775.8,286047002.3,N,1.2
1503477795.6,286047002.5,N,1.2
1503477815.4,286047001.5,N,1.2
1503477835.3,286047002.5,N,1.2
1503477855.1,286047001.7,N,1.1
1503477875.8,286047001.9,N,1.1
1503477895.7,286047001.6,N,1.1
1503477915.5,286047001.6,N,1.0
1503477935.4,286047001.6,N,1.0
1503477955.2,286047002.0,N,1.0
1503477975.0,286047002.4,N,1.0
1503477975.9,286047002.4,N,1.0
1503477995.8,286047002.1,N,1.0
1503478015.6,286047001.9,N,1.0
1503478035.5,286047004.0,Y,0.0
1503478055.3,286047002.8,P,0.6
1503478075.1,286047002.8,P,0.6
1503478095.9,286046999.9,N,1.2
1503478115.7,286047001.6,N,1.1
1503478135.5,286047002.5,N,1.0
1503478155.4,286047002.3,N,0.9
1503478175.2,286047001.7,N,0.9
1503478195.1,286047002.4,N,0.9
1503478196.0,286047002.4,N,0.8
1503478215.8,286047002.0,N,0.8
1503478235.6,286047001.7,N,0.8
1503478255.5,286047004.4,Y,0.0
1503478275.3,286047002.7,P,0.4
1503478295.2,286046999.8,N,1.2
1503478315.0,286047002.5,N,1.2
1503478315.9,286047002.5,N,1.1
1503478335.8,286047002.7,N,1.0
1503478355.6,286047002.3,N,1.0
1503478375.4,286047002.8,N,0.9
1503478395.3,286047002.6,N,0.9
1503478415.1,286047002.6,N,0.8
1503478435.9,286047002.2,N,0.8
1503478455.7,286047001.7,N,0.8
1503478475.5,286047002.6,Y,0.0
1503478495.4,286047000.9,P,0.6
1503478515.2,286047000.9,N,0.6
1503478535.0,286047001.0,N,0.5
1503478536.0,286047001.0,N,0.5
1503478555.8,286047000.9,N,0.5
1503478575.6,286046999.9,N,0.6
1503478595.5,286047000.2,N,0.6
1503478615.3,286047002.3,Y,0.0
1503478635.1,286047001.2,P,0.2
1503478655.9,286682703.6,P,299673.1
1503478675.7,286046998.2,N,275267.7
1503478695.6,286047000.7,N,254281.4
1503478715.4,286046999.9,N,236912.7
1503478735.2,286047000.3,N,222449.9
1503478755.1,286047000.5,N,210239.1
1503478756.0,286047000.5,N,199782.3
1503478775.8,286046999.9,N,190711.0
1503478795.7,286046999.7,N,182751.9
